Year,Month,Day,Hour,Minute,Value (Times are PST for temperature in C)
2017,09,02,00,00,16.20
2017,09,02,00,01,16.20
2017,09,02,00,02,16.20
2017,09,02,00,03,16.20
2017,09,02,00,04,16.20
2017,09,02,00,05,16.20
2017,09,02,00,06,16.20
2017,09,02,00,07,16.20
2017,09,02,00,08,16.20
2017,09,02,00,09,16.20
2017,09,02,00,10,16.20
2017,09,02,00,11,16.20
2017,09,02,00,12,16.20
2017,09,02,00,13,16.10
2017,09,02,00,14,16.10
2017,09,02,00,15,16.20
2017,09,02,00,16,16.20
2017,09,02,00,17,16.20
2017,09,02,00,18,16.20
2017,09,02,00,19,16.20
2017,09,02,00,20,16.20
2017,09,02,00,21,16.20
2017,09,02,00,22,16.20
2017,09,02,00,23,16.20
2017,09,02,00,24,16.20
2017,09,02,00,25,16.20
2017,09,02,00,26,16.20
2017,09,02,00,27,16.20
2017,09,02,00,28,16.20
2017,09,02,00,29,16.10
2017,09,02,00,30,16.10
2017,09,02,00,31,16.10
2017,09,02,00,32,16.10
2017,09,02,00,33,16.10
2017,09,02,00,34,16.10
2017,09,02,00,35,16.10
2017,09,02,00,36,16.10
2017,09,02,00,37,16.10
2017,09,02,00,38,16.10
2017,09,02,00,39,16.10
2017,09,02,00,40,16.10
2017,09,02,00,41,16.10
2017,09,02,00,42,16.10
2017,09,02,00,43,16.10
2017,09,02,00,44,16.10
2017,09,02,00,45,16.00
2017,09,02,00,46,16.00
2017,09,02,00,47,16.00
2017,09,02,00,48,16.00
2017,09,02,00,49,15.90
2017,09,02,00,50,15.90
2017,09,02,00,51,15.90
2017,09,02,00,52,15.90
2017,09,02,00,53,15.80
2017,09,02,00,54,15.80
2017,09,02,00,55,15.80
2017,09,02,00,56,15.80
2017,09,02,00,57,15.80
2017,09,02,00,58,15.70
2017,09,02,00,59,15.70
2017,09,02,01,00,15.70
2017,09,02,01,01,15.70
2017,09,02,01,02,15.70
2017,09,02,01,03,15.70
2017,09,02,01,04,15.60
2017,09,02,01,05,15.60
2017,09,02,01,06,15.60
2017,09,02,01,07,15.60
2017,09,02,01,08,15.60
2017,09,02,01,09,15.60
2017,09,02,01,10,15.60
2017,09,02,01,11,15.60
2017,09,02,01,12,15.60
2017,09,02,01,13,15.60
2017,09,02,01,14,15.60
2017,09,02,01,15,15.70
2017,09,02,01,16,15.70
2017,09,02,01,17,15.70
2017,09,02,01,18,15.70
2017,09,02,01,19,15.70
2017,09,02,01,20,15.70
2017,09,02,01,21,15.70
2017,09,02,01,22,15.70
2017,09,02,01,23,15.70
2017,09,02,01,24,15.70
2017,09,02,01,25,15.60
2017,09,02,01,26,15.60
2017,09,02,01,27,15.60
2017,09,02,01,28,15.60
2017,09,02,01,29,15.60
2017,09,02,01,30,15.60
2017,09,02,01,31,15.60
2017,09,02,01,32,15.60
2017,09,02,01,33,15.60
2017,09,02,01,34,15.60
2017,09,02,01,35,15.60
2017,09,02,01,36,15.60
2017,09,02,01,37,15.60
2017,09,02,01,38,15.60
2017,09,02,01,39,15.60
2017,09,02,01,40,15.60
2017,09,02,01,41,15.60
2017,09,02,01,42,15.60
2017,09,02,01,43,15.60
2017,09,02,01,44,15.60
2017,09,02,01,45,15.50
2017,09,02,01,46,15.50
2017,09,02,01,47,15.50
2017,09,02,01,48,15.50
2017,09,02,01,49,15.40
2017,09,02,01,50,15.40
2017,09,02,01,51,15.40
2017,09,02,01,52,15.40
2017,09,02,01,53,15.40
2017,09,02,01,54,15.40
2017,09,02,01,55,15.40
2017,09,02,01,56,15.50
2017,09,02,01,57,15.50
2017,09,02,01,58,15.50
2017,09,02,01,59,15.60
2017,09,02,02,00,15.60
2017,09,02,02,01,15.60
2017,09,02,02,02,15.70
2017,09,02,02,03,15.70
2017,09,02,02,04,15.70
2017,09,02,02,05,15.70
2017,09,02,02,06,15.70
2017,09,02,02,07,15.70
2017,09,02,02,08,15.70
2017,09,02,02,09,15.70
2017,09,02,02,10,15.70
2017,09,02,02,11,15.70
2017,09,02,02,12,15.70
2017,09,02,02,13,15.70
2017,09,02,02,14,15.70
2017,09,02,02,15,15.70
2017,09,02,02,16,15.70
2017,09,02,02,17,15.70
2017,09,02,02,18,15.70
2017,09,02,02,19,15.70
2017,09,02,02,20,15.70
2017,09,02,02,21,15.60
2017,09,02,02,22,15.60
2017,09,02,02,23,15.60
2017,09,02,02,24,15.60
2017,09,02,02,25,15.60
2017,09,02,02,26,15.60
2017,09,02,02,27,15.50
2017,09,02,02,28,15.50
2017,09,02,02,29,15.50
2017,09,02,02,30,15.40
2017,09,02,02,31,15.40
2017,09,02,02,32,15.40
2017,09,02,02,33,15.40
2017,09,02,02,34,15.40
2017,09,02,02,35,15.40
2017,09,02,02,36,15.40
2017,09,02,02,37,15.40
2017,09,02,02,38,15.40
2017,09,02,02,39,15.30
2017,09,02,02,40,15.30
2017,09,02,02,41,15.30
2017,09,02,02,42,15.30
2017,09,02,02,43,15.30
2017,09,02,02,44,15.30
2017,09,02,02,45,15.30
2017,09,02,02,46,15.20
2017,09,02,02,47,15.20
2017,09,02,02,48,15.20
2017,09,02,02,49,15.20
2017,09,02,02,50,15.10
2017,09,02,02,51,15.10
2017,09,02,02,52,15.10
2017,09,02,02,53,15.10
2017,09,02,02,54,15.00
2017,09,02,02,55,15.00
2017,09,02,02,56,15.00
2017,09,02,02,57,15.00
2017,09,02,02,58,15.00
2017,09,02,02,59,15.00
2017,09,02,03,00,15.00
2017,09,02,03,01,15.00
2017,09,02,03,02,15.00
2017,09,02,03,03,15.00
2017,09,02,03,04,15.00
2017,09,02,03,05,15.00
2017,09,02,03,06,15.00
2017,09,02,03,07,15.00
2017,09,02,03,08,15.00
2017,09,02,03,09,15.00
2017,09,02,03,10,15.00
2017,09,02,03,11,15.00
2017,09,02,03,12,15.00
2017,09,02,03,13,15.00
2017,09,02,03,14,15.00
2017,09,02,03,15,15.00
2017,09,02,03,16,15.00
2017,09,02,03,17,14.90
2017,09,02,03,18,14.90
2017,09,02,03,19,14.90
2017,09,02,03,20,14.90
2017,09,02,03,21,14.90
2017,09,02,03,22,14.90
2017,09,02,03,23,14.80
2017,09,02,03,24,14.80
2017,09,02,03,25,14.80
2017,09,02,03,26,14.80
2017,09,02,03,27,14.80
2017,09,02,03,28,14.80
2017,09,02,03,29,14.80
2017,09,02,03,30,14.80
2017,09,02,03,31,14.80
2017,09,02,03,32,14.80
2017,09,02,03,33,14.80
2017,09,02,03,34,14.80
2017,09,02,03,35,14.80
2017,09,02,03,36,14.70
2017,09,02,03,37,14.70
2017,09,02,03,38,14.70
2017,09,02,03,39,14.70
2017,09,02,03,40,14.70
2017,09,02,03,41,14.70
2017,09,02,03,42,14.70
2017,09,02,03,43,14.70
2017,09,02,03,44,14.70
2017,09,02,03,45,14.70
2017,09,02,03,46,14.70
2017,09,02,03,47,14.70
2017,09,02,03,48,14.70
2017,09,02,03,49,14.70
2017,09,02,03,50,14.70
2017,09,02,03,51,14.70
2017,09,02,03,52,14.60
2017,09,02,03,53,14.60
2017,09,02,03,54,14.60
2017,09,02,03,55,14.60
2017,09,02,03,56,14.70
2017,09,02,03,57,14.70
2017,09,02,03,58,14.70
2017,09,02,03,59,14.70
2017,09,02,04,00,14.70
2017,09,02,04,01,14.70
2017,09,02,04,02,14.70
2017,09,02,04,03,14.70
2017,09,02,04,04,14.70
2017,09,02,04,05,14.70
2017,09,02,04,06,14.70
2017,09,02,04,07,14.70
2017,09,02,04,08,14.70
2017,09,02,04,09,14.70
2017,09,02,04,10,14.70
2017,09,02,04,11,14.70
2017,09,02,04,12,14.70
2017,09,02,04,13,14.70
2017,09,02,04,14,14.70
2017,09,02,04,15,14.70
2017,09,02,04,16,14.70
2017,09,02,04,17,14.70
2017,09,02,04,18,14.70
2017,09,02,04,19,14.70
2017,09,02,04,20,14.70
2017,09,02,04,21,14.70
2017,09,02,04,22,14.70
2017,09,02,04,23,14.70
2017,09,02,04,24,14.70
2017,09,02,04,25,14.70
2017,09,02,04,26,14.70
2017,09,02,04,27,14.70
2017,09,02,04,28,14.70
2017,09,02,04,29,14.70
2017,09,02,04,30,14.70
2017,09,02,04,31,14.60
2017,09,02,04,32,14.60
2017,09,02,04,33,14.60
2017,09,02,04,34,14.60
2017,09,02,04,35,14.60
2017,09,02,04,36,14.60
2017,09,02,04,37,14.60
2017,09,02,04,38,14.60
2017,09,02,04,39,14.60
2017,09,02,04,40,14.60
2017,09,02,04,41,14.60
2017,09,02,04,42,14.60
2017,09,02,04,43,14.60
2017,09,02,04,44,14.60
2017,09,02,04,45,14.60
2017,09,02,04,46,14.60
2017,09,02,04,47,14.60
2017,09,02,04,48,14.60
2017,09,02,04,49,14.60
2017,09,02,04,50,14.50
2017,09,02,04,51,14.50
2017,09,02,04,52,14.50
2017,09,02,04,53,14.50
2017,09,02,04,54,14.50
2017,09,02,04,55,14.40
2017,09,02,04,56,14.40
2017,09,02,04,57,14.40
2017,09,02,04,58,14.40
2017,09,02,04,59,14.40
2017,09,02,05,00,14.40
2017,09,02,05,01,14.40
2017,09,02,05,02,14.40
2017,09,02,05,03,14.40
2017,09,02,05,04,14.40
2017,09,02,05,05,14.40
2017,09,02,05,06,14.40
2017,09,02,05,07,14.40
2017,09,02,05,08,14.40
2017,09,02,05,09,14.40
2017,09,02,05,10,14.40
2017,09,02,05,11,14.40
2017,09,02,05,12,14.40
2017,09,02,05,13,14.40
2017,09,02,05,14,14.40
2017,09,02,05,15,14.40
2017,09,02,05,16,14.40
2017,09,02,05,17,14.40
2017,09,02,05,18,14.40
2017,09,02,05,19,14.40
2017,09,02,05,20,14.40
2017,09,02,05,21,14.40
2017,09,02,05,22,14.40
2017,09,02,05,23,14.40
2017,09,02,05,24,14.40
2017,09,02,05,25,14.40
2017,09,02,05,26,14.40
2017,09,02,05,27,14.40
2017,09,02,05,28,14.40
2017,09,02,05,29,14.40
2017,09,02,05,30,14.40
2017,09,02,05,31,14.30
2017,09,02,05,32,14.30
2017,09,02,05,33,14.30
2017,09,02,05,34,14.30
2017,09,02,05,35,14.30
2017,09,02,05,36,14.30
2017,09,02,05,37,14.30
2017,09,02,05,38,14.30
2017,09,02,05,39,14.30
2017,09,02,05,40,14.30
2017,09,02,05,41,14.30
2017,09,02,05,42,14.30
2017,09,02,05,43,14.30
2017,09,02,05,44,14.30
2017,09,02,05,45,14.30
2017,09,02,05,46,14.30
2017,09,02,05,47,14.30
2017,09,02,05,48,14.30
2017,09,02,05,49,14.20
2017,09,02,05,50,14.20
2017,09,02,05,51,14.20
2017,09,02,05,52,14.20
2017,09,02,05,53,14.20
2017,09,02,05,54,14.20
2017,09,02,05,55,14.20
2017,09,02,05,56,14.20
2017,09,02,05,57,14.20
2017,09,02,05,58,14.20
2017,09,02,05,59,14.20
2017,09,02,06,00,14.20
2017,09,02,06,01,14.20
2017,09,02,06,02,14.20
2017,09,02,06,03,14.20
2017,09,02,06,04,14.20
2017,09,02,06,05,14.20
2017,09,02,06,06,14.20
2017,09,02,06,07,14.20
2017,09,02,06,08,14.20
2017,09,02,06,09,14.20
2017,09,02,06,10,14.20
2017,09,02,06,11,14.10
2017,09,02,06,12,14.10
2017,09,02,06,13,14.10
2017,09,02,06,14,14.10
2017,09,02,06,15,14.10
2017,09,02,06,16,14.10
2017,09,02,06,17,14.10
2017,09,02,06,18,14.10
2017,09,02,06,19,14.10
2017,09,02,06,20,14.00
2017,09,02,06,21,14.00
2017,09,02,06,22,14.00
2017,09,02,06,23,14.00
2017,09,02,06,24,14.00
2017,09,02,06,25,14.00
2017,09,02,06,26,14.00
2017,09,02,06,27,14.00
2017,09,02,06,28,14.00
2017,09,02,06,29,14.00
2017,09,02,06,30,14.00
2017,09,02,06,31,14.00
2017,09,02,06,32,14.00
2017,09,02,06,33,14.00
2017,09,02,06,34,14.10
2017,09,02,06,35,14.10
2017,09,02,06,36,14.10
2017,09,02,06,37,14.10
2017,09,02,06,38,14.10
2017,09,02,06,39,14.10
2017,09,02,06,40,14.10
2017,09,02,06,41,14.10
2017,09,02,06,42,14.20
2017,09,02,06,43,14.20
2017,09,02,06,44,14.20
2017,09,02,06,45,14.20
2017,09,02,06,46,14.20
2017,09,02,06,47,14.20
2017,09,02,06,48,14.20
2017,09,02,06,49,14.20
2017,09,02,06,50,14.20
2017,09,02,06,51,14.20
2017,09,02,06,52,14.20
2017,09,02,06,53,14.20
2017,09,02,06,54,14.20
2017,09,02,06,55,14.30
2017,09,02,06,56,14.30
2017,09,02,06,57,14.30
2017,09,02,06,58,14.30
2017,09,02,06,59,14.30
2017,09,02,07,00,14.40
2017,09,02,07,01,14.40
2017,09,02,07,02,14.40
2017,09,02,07,03,14.40
2017,09,02,07,04,14.40
2017,09,02,07,05,14.50
2017,09,02,07,06,14.50
2017,09,02,07,07,14.60
2017,09,02,07,08,14.60
2017,09,02,07,09,14.60
2017,09,02,07,10,14.70
2017,09,02,07,11,14.70
2017,09,02,07,12,14.80
2017,09,02,07,13,14.80
2017,09,02,07,14,15.00
2017,09,02,07,15,15.00
2017,09,02,07,16,15.00
2017,09,02,07,17,15.00
2017,09,02,07,18,15.00
2017,09,02,07,19,15.00
2017,09,02,07,20,15.10
2017,09,02,07,21,15.20
2017,09,02,07,22,15.20
2017,09,02,07,23,15.20
2017,09,02,07,24,15.30
2017,09,02,07,25,15.30
2017,09,02,07,26,15.30
2017,09,02,07,27,15.30
2017,09,02,07,28,15.40
2017,09,02,07,29,15.40
2017,09,02,07,30,15.50
2017,09,02,07,31,15.60
2017,09,02,07,32,15.60
2017,09,02,07,33,15.70
2017,09,02,07,34,15.80
2017,09,02,07,35,15.80
2017,09,02,07,36,15.90
2017,09,02,07,37,15.90
2017,09,02,07,38,16.00
2017,09,02,07,39,16.00
2017,09,02,07,40,16.10
2017,09,02,07,41,16.20
2017,09,02,07,42,16.30
2017,09,02,07,43,16.40
2017,09,02,07,44,16.50
2017,09,02,07,45,16.60
2017,09,02,07,46,16.70
2017,09,02,07,47,16.80
2017,09,02,07,48,16.90
2017,09,02,07,49,17.00
2017,09,02,07,50,17.10
2017,09,02,07,51,17.20
2017,09,02,07,52,17.20
2017,09,02,07,53,17.30
2017,09,02,07,54,17.30
2017,09,02,07,55,17.40
2017,09,02,07,56,17.40
2017,09,02,07,57,17.40
2017,09,02,07,58,17.50
2017,09,02,07,59,17.50
2017,09,02,08,00,17.60
2017,09,02,08,01,17.60
2017,09,02,08,02,17.70
2017,09,02,08,03,17.70
2017,09,02,08,04,17.80
2017,09,02,08,05,17.90
2017,09,02,08,06,17.90
2017,09,02,08,07,18.00
2017,09,02,08,08,18.10
2017,09,02,08,09,18.10
2017,09,02,08,10,18.20
2017,09,02,08,11,18.30
2017,09,02,08,12,18.30
2017,09,02,08,13,18.40
2017,09,02,08,14,18.50
2017,09,02,08,15,18.70
2017,09,02,08,16,18.80
2017,09,02,08,17,19.00
2017,09,02,08,18,19.10
2017,09,02,08,19,19.30
2017,09,02,08,20,19.40
2017,09,02,08,21,19.60
2017,09,02,08,22,19.70
2017,09,02,08,23,19.80
2017,09,02,08,24,19.90
2017,09,02,08,25,20.00
2017,09,02,08,26,20.10
2017,09,02,08,27,20.20
2017,09,02,08,28,20.30
2017,09,02,08,29,20.40
2017,09,02,08,30,20.40
2017,09,02,08,31,20.50
2017,09,02,08,32,20.60
2017,09,02,08,33,20.70
2017,09,02,08,34,20.70
2017,09,02,08,35,20.80
2017,09,02,08,36,20.90
2017,09,02,08,37,20.90
2017,09,02,08,38,20.90
2017,09,02,08,39,21.00
2017,09,02,08,40,21.00
2017,09,02,08,41,21.10
2017,09,02,08,42,21.10
2017,09,02,08,43,21.10
2017,09,02,08,44,21.10
2017,09,02,08,45,21.20
2017,09,02,08,46,21.20
2017,09,02,08,47,21.10
2017,09,02,08,48,21.10
2017,09,02,08,49,21.10
2017,09,02,08,50,21.10
2017,09,02,08,51,21.00
2017,09,02,08,52,21.00
2017,09,02,08,53,20.90
2017,09,02,08,54,20.80
2017,09,02,08,55,20.80
2017,09,02,08,56,20.80
2017,09,02,08,57,20.70
2017,09,02,08,58,20.70
2017,09,02,08,59,20.60
2017,09,02,09,00,20.60
2017,09,02,09,01,20.60
2017,09,02,09,02,20.60
2017,09,02,09,03,20.60
2017,09,02,09,04,20.60
2017,09,02,09,05,20.60
2017,09,02,09,06,20.60
2017,09,02,09,07,20.60
2017,09,02,09,08,20.60
2017,09,02,09,09,20.60
2017,09,02,09,10,20.60
2017,09,02,09,11,20.70
2017,09,02,09,12,20.80
2017,09,02,09,13,20.80
2017,09,02,09,14,20.80
2017,09,02,09,15,20.90
2017,09,02,09,16,20.90
2017,09,02,09,17,20.90
2017,09,02,09,18,21.00
2017,09,02,09,19,21.00
2017,09,02,09,20,21.00
2017,09,02,09,21,21.00
2017,09,02,09,22,21.00
2017,09,02,09,23,21.00
2017,09,02,09,24,21.10
2017,09,02,09,25,21.10
2017,09,02,09,26,21.10
2017,09,02,09,27,21.10
2017,09,02,09,28,21.10
2017,09,02,09,29,21.10
2017,09,02,09,30,21.20
2017,09,02,09,31,21.20
2017,09,02,09,32,21.20
2017,09,02,09,33,21.10
2017,09,02,09,34,21.10
2017,09,02,09,35,21.10
2017,09,02,09,36,21.10
2017,09,02,09,37,21.10
2017,09,02,09,38,21.10
2017,09,02,09,39,21.10
2017,09,02,09,40,21.20
2017,09,02,09,41,21.20
2017,09,02,09,42,21.30
2017,09,02,09,43,21.30
2017,09,02,09,44,21.40
2017,09,02,09,45,21.40
2017,09,02,09,46,21.50
2017,09,02,09,47,21.60
2017,09,02,09,48,21.70
2017,09,02,09,49,21.70
2017,09,02,09,50,21.80
2017,09,02,09,51,21.90
2017,09,02,09,52,21.90
2017,09,02,09,53,22.00
2017,09,02,09,54,22.10
2017,09,02,09,55,22.20
2017,09,02,09,56,22.20
2017,09,02,09,57,22.30
2017,09,02,09,58,22.30
2017,09,02,09,59,22.30
2017,09,02,10,00,22.40
2017,09,02,10,01,22.40
2017,09,02,10,02,22.40
2017,09,02,10,03,22.50
2017,09,02,10,04,22.50
2017,09,02,10,05,22.60
2017,09,02,10,06,22.60
2017,09,02,10,07,22.70
2017,09,02,10,08,22.70
2017,09,02,10,09,22.70
2017,09,02,10,10,22.60
2017,09,02,10,11,22.60
2017,09,02,10,12,22.60
2017,09,02,10,13,22.60
2017,09,02,10,14,22.60
2017,09,02,10,15,22.60
2017,09,02,10,16,22.60
2017,09,02,10,17,22.50
2017,09,02,10,18,22.40
2017,09,02,10,19,22.40
2017,09,02,10,20,22.30
2017,09,02,10,21,22.20
2017,09,02,10,22,22.10
2017,09,02,10,23,22.10
2017,09,02,10,24,22.00
2017,09,02,10,25,22.00
2017,09,02,10,26,21.90
2017,09,02,10,27,21.90
2017,09,02,10,28,21.90
2017,09,02,10,29,21.90
2017,09,02,10,30,21.90
2017,09,02,10,31,21.90
2017,09,02,10,32,21.80
2017,09,02,10,33,21.80
2017,09,02,10,34,21.80
2017,09,02,10,35,21.80
2017,09,02,10,36,21.80
2017,09,02,10,37,21.80
2017,09,02,10,38,21.80
2017,09,02,10,39,21.80
2017,09,02,10,40,21.80
2017,09,02,10,41,21.80
2017,09,02,10,42,21.80
2017,09,02,10,43,21.80
2017,09,02,10,44,21.90
2017,09,02,10,45,21.90
2017,09,02,10,46,21.90
2017,09,02,10,47,21.90
2017,09,02,10,48,22.00
2017,09,02,10,49,22.00
2017,09,02,10,50,22.10
2017,09,02,10,51,22.10
2017,09,02,10,52,22.20
2017,09,02,10,53,22.20
2017,09,02,10,54,22.30
2017,09,02,10,55,22.40
2017,09,02,10,56,22.50
2017,09,02,10,57,22.50
2017,09,02,10,58,22.60
2017,09,02,10,59,22.50
2017,09,02,11,00,22.50
2017,09,02,11,01,22.40
2017,09,02,11,02,22.40
2017,09,02,11,03,22.30
2017,09,02,11,04,22.30
2017,09,02,11,05,22.30
2017,09,02,11,06,22.30
2017,09,02,11,07,22.30
2017,09,02,11,08,22.30
2017,09,02,11,09,22.30
2017,09,02,11,10,22.30
2017,09,02,11,11,22.30
2017,09,02,11,12,22.40
2017,09,02,11,13,22.50
2017,09,02,11,14,22.60
2017,09,02,11,15,22.70
2017,09,02,11,16,22.80
2017,09,02,11,17,22.80
2017,09,02,11,18,22.90
2017,09,02,11,19,22.90
2017,09,02,11,20,22.90
2017,09,02,11,21,22.90
2017,09,02,11,22,23.00
2017,09,02,11,23,22.90
2017,09,02,11,24,23.00
2017,09,02,11,25,23.00
2017,09,02,11,26,23.00
2017,09,02,11,27,23.00
2017,09,02,11,28,23.00
2017,09,02,11,29,23.00
2017,09,02,11,30,22.90
2017,09,02,11,31,22.90
2017,09,02,11,32,22.90
2017,09,02,11,33,22.90
2017,09,02,11,34,22.90
2017,09,02,11,35,22.90
2017,09,02,11,36,22.90
2017,09,02,11,37,22.90
2017,09,02,11,38,23.00
2017,09,02,11,39,23.10
2017,09,02,11,40,23.10
2017,09,02,11,41,23.20
2017,09,02,11,42,23.20
2017,09,02,11,43,23.20
2017,09,02,11,44,23.20
2017,09,02,11,45,23.30
2017,09,02,11,46,23.30
2017,09,02,11,47,23.30
2017,09,02,11,48,23.30
2017,09,02,11,49,23.30
2017,09,02,11,50,23.30
2017,09,02,11,51,23.30
2017,09,02,11,52,23.30
2017,09,02,11,53,23.30
2017,09,02,11,54,23.30
2017,09,02,11,55,23.40
2017,09,02,11,56,23.40
2017,09,02,11,57,23.50
2017,09,02,11,58,23.60
2017,09,02,11,59,23.70
2017,09,02,12,00,23.80
2017,09,02,12,01,23.80
2017,09,02,12,02,23.80
2017,09,02,12,03,23.80
2017,09,02,12,04,23.80
2017,09,02,12,05,23.80
2017,09,02,12,06,23.90
2017,09,02,12,07,23.90
2017,09,02,12,08,23.90
2017,09,02,12,09,24.00
2017,09,02,12,10,24.10
2017,09,02,12,11,24.10
2017,09,02,12,12,24.10
2017,09,02,12,13,24.10
2017,09,02,12,14,24.10
2017,09,02,12,15,24.10
2017,09,02,12,16,24.00
2017,09,02,12,17,24.10
2017,09,02,12,18,24.10
2017,09,02,12,19,24.10
2017,09,02,12,20,24.10
2017,09,02,12,21,24.00
2017,09,02,12,22,24.00
2017,09,02,12,23,23.90
2017,09,02,12,24,23.90
2017,09,02,12,25,23.90
2017,09,02,12,26,23.90
2017,09,02,12,27,24.00
2017,09,02,12,28,24.00
2017,09,02,12,29,24.10
2017,09,02,12,30,24.20
2017,09,02,12,31,24.30
2017,09,02,12,32,24.50
2017,09,02,12,33,24.60
2017,09,02,12,34,24.70
2017,09,02,12,35,24.80
2017,09,02,12,36,24.90
2017,09,02,12,37,25.00
2017,09,02,12,38,25.10
2017,09,02,12,39,25.10
2017,09,02,12,40,25.20
2017,09,02,12,41,25.30
2017,09,02,12,42,25.30
2017,09,02,12,43,25.40
2017,09,02,12,44,25.40
2017,09,02,12,45,25.40
2017,09,02,12,46,25.30
2017,09,02,12,47,25.30
2017,09,02,12,48,25.20
2017,09,02,12,49,25.20
2017,09,02,12,50,25.10
2017,09,02,12,51,25.10
2017,09,02,12,52,25.10
2017,09,02,12,53,25.00
2017,09,02,12,54,24.90
2017,09,02,12,55,24.80
2017,09,02,12,56,24.70
2017,09,02,12,57,24.60
2017,09,02,12,58,24.50
2017,09,02,12,59,24.50
2017,09,02,13,00,24.40
2017,09,02,13,01,24.40
2017,09,02,13,02,24.40
2017,09,02,13,03,24.50
2017,09,02,13,04,24.60
2017,09,02,13,05,24.70
2017,09,02,13,06,24.80
2017,09,02,13,07,24.90
2017,09,02,13,08,25.00
2017,09,02,13,09,25.10
2017,09,02,13,10,25.20
2017,09,02,13,11,25.30
2017,09,02,13,12,25.30
2017,09,02,13,13,25.40
2017,09,02,13,14,25.40
2017,09,02,13,15,25.50
2017,09,02,13,16,25.50
2017,09,02,13,17,25.60
2017,09,02,13,18,25.60
2017,09,02,13,19,25.70
2017,09,02,13,20,25.80
2017,09,02,13,21,25.90
2017,09,02,13,22,26.00
2017,09,02,13,23,26.10
2017,09,02,13,24,26.20
2017,09,02,13,25,26.30
2017,09,02,13,26,26.40
2017,09,02,13,27,26.50
2017,09,02,13,28,26.50
2017,09,02,13,29,26.60
2017,09,02,13,30,26.70
2017,09,02,13,31,26.80
2017,09,02,13,32,26.90
2017,09,02,13,33,27.00
2017,09,02,13,34,27.10
2017,09,02,13,35,27.20
2017,09,02,13,36,27.20
2017,09,02,13,37,27.30
2017,09,02,13,38,27.40
2017,09,02,13,39,27.40
2017,09,02,13,40,27.40
2017,09,02,13,41,27.40
2017,09,02,13,42,27.40
2017,09,02,13,43,27.30
2017,09,02,13,44,27.30
2017,09,02,13,45,27.30
2017,09,02,13,46,27.20
2017,09,02,13,47,27.20
2017,09,02,13,48,27.30
2017,09,02,13,49,27.30
2017,09,02,13,50,27.30
2017,09,02,13,51,27.40
2017,09,02,13,52,27.40
2017,09,02,13,53,27.40
2017,09,02,13,54,27.50
2017,09,02,13,55,27.60
2017,09,02,13,56,27.70
2017,09,02,13,57,27.80
2017,09,02,13,58,27.70
2017,09,02,13,59,27.70
2017,09,02,14,00,27.60
2017,09,02,14,01,27.50
2017,09,02,14,02,27.40
2017,09,02,14,03,27.40
2017,09,02,14,04,27.40
2017,09,02,14,05,27.40
2017,09,02,14,06,27.30
2017,09,02,14,07,27.30
2017,09,02,14,08,27.30
2017,09,02,14,09,27.30
2017,09,02,14,10,27.30
2017,09,02,14,11,27.30
2017,09,02,14,12,27.30
2017,09,02,14,13,27.20
2017,09,02,14,14,27.20
2017,09,02,14,15,27.20
2017,09,02,14,16,27.20
2017,09,02,14,17,27.30
2017,09,02,14,18,27.30
2017,09,02,14,19,27.20
2017,09,02,14,20,27.20
2017,09,02,14,21,27.20
2017,09,02,14,22,27.20
2017,09,02,14,23,27.20
2017,09,02,14,24,27.20
2017,09,02,14,25,27.30
2017,09,02,14,26,27.20
2017,09,02,14,27,27.20
2017,09,02,14,28,27.20
2017,09,02,14,29,27.30
2017,09,02,14,30,27.30
2017,09,02,14,31,27.30
2017,09,02,14,32,27.30
2017,09,02,14,33,27.40
2017,09,02,14,34,27.50
2017,09,02,14,35,27.70
2017,09,02,14,36,27.70
2017,09,02,14,37,27.70
2017,09,02,14,38,27.80
2017,09,02,14,39,27.80
2017,09,02,14,40,27.90
2017,09,02,14,41,27.90
2017,09,02,14,42,28.00
2017,09,02,14,43,28.10
2017,09,02,14,44,28.10
2017,09,02,14,45,28.10
2017,09,02,14,46,28.20
2017,09,02,14,47,28.20
2017,09,02,14,48,28.20
2017,09,02,14,49,28.20
2017,09,02,14,50,28.20
2017,09,02,14,51,28.20
2017,09,02,14,52,28.10
2017,09,02,14,53,27.90
2017,09,02,14,54,27.80
2017,09,02,14,55,27.70
2017,09,02,14,56,27.60
2017,09,02,14,57,27.50
2017,09,02,14,58,27.40
2017,09,02,14,59,27.30
2017,09,02,15,00,27.30
2017,09,02,15,01,27.30
2017,09,02,15,02,27.30
2017,09,02,15,03,27.30
2017,09,02,15,04,27.20
2017,09,02,15,05,27.20
2017,09,02,15,06,27.20
2017,09,02,15,07,27.30
2017,09,02,15,08,27.30
2017,09,02,15,09,27.30
2017,09,02,15,10,27.30
2017,09,02,15,11,27.30
2017,09,02,15,12,27.30
2017,09,02,15,13,27.30
2017,09,02,15,14,27.30
2017,09,02,15,15,27.40
2017,09,02,15,16,27.50
2017,09,02,15,17,27.50
2017,09,02,15,18,27.60
2017,09,02,15,19,27.70
2017,09,02,15,20,27.70
2017,09,02,15,21,27.70
2017,09,02,15,22,27.70
2017,09,02,15,23,27.70
2017,09,02,15,24,27.70
2017,09,02,15,25,27.70
2017,09,02,15,26,27.60
2017,09,02,15,27,27.50
2017,09,02,15,28,27.40
2017,09,02,15,29,27.30
2017,09,02,15,30,27.20
2017,09,02,15,31,27.10
2017,09,02,15,32,27.10
2017,09,02,15,33,27.10
2017,09,02,15,34,27.10
2017,09,02,15,35,27.00
2017,09,02,15,36,27.00
2017,09,02,15,37,27.00
2017,09,02,15,38,26.90
2017,09,02,15,39,26.90
2017,09,02,15,40,26.90
2017,09,02,15,41,27.00
2017,09,02,15,42,27.00
2017,09,02,15,43,27.10
2017,09,02,15,44,27.20
2017,09,02,15,45,27.30
2017,09,02,15,46,27.30
2017,09,02,15,47,27.30
2017,09,02,15,48,27.30
2017,09,02,15,49,27.30
2017,09,02,15,50,27.30
2017,09,02,15,51,27.30
2017,09,02,15,52,27.20
2017,09,02,15,53,27.10
2017,09,02,15,54,27.00
2017,09,02,15,55,27.00
2017,09,02,15,56,27.00
2017,09,02,15,57,26.90
2017,09,02,15,58,26.90
2017,09,02,15,59,26.90
2017,09,02,16,00,26.80
2017,09,02,16,01,26.80
2017,09,02,16,02,26.90
2017,09,02,16,03,26.90
2017,09,02,16,04,27.00
2017,09,02,16,05,27.00
2017,09,02,16,06,27.10
2017,09,02,16,07,27.20
2017,09,02,16,08,27.30
2017,09,02,16,09,27.40
2017,09,02,16,10,27.40
2017,09,02,16,11,27.40
2017,09,02,16,12,27.40
2017,09,02,16,13,27.50
2017,09,02,16,14,27.50
2017,09,02,16,15,27.60
2017,09,02,16,16,27.70
2017,09,02,16,17,27.70
2017,09,02,16,18,27.80
2017,09,02,16,19,27.90
2017,09,02,16,20,27.90
2017,09,02,16,21,27.80
2017,09,02,16,22,27.80
2017,09,02,16,23,27.80
2017,09,02,16,24,27.80
2017,09,02,16,25,27.80
2017,09,02,16,26,27.70
2017,09,02,16,27,27.70
2017,09,02,16,28,27.70
2017,09,02,16,29,27.70
2017,09,02,16,30,27.60
2017,09,02,16,31,27.60
2017,09,02,16,32,27.70
2017,09,02,16,33,27.70
2017,09,02,16,34,27.80
2017,09,02,16,35,27.80
2017,09,02,16,36,27.90
2017,09,02,16,37,27.90
2017,09,02,16,38,27.90
2017,09,02,16,39,27.90
2017,09,02,16,40,27.90
2017,09,02,16,41,27.90
2017,09,02,16,42,27.90
2017,09,02,16,43,27.90
2017,09,02,16,44,27.90
2017,09,02,16,45,27.90
2017,09,02,16,46,28.00
2017,09,02,16,47,28.00
2017,09,02,16,48,28.10
2017,09,02,16,49,28.20
2017,09,02,16,50,28.20
2017,09,02,16,51,28.20
2017,09,02,16,52,28.20
2017,09,02,16,53,28.20
2017,09,02,16,54,28.20
2017,09,02,16,55,28.20
2017,09,02,16,56,28.20
2017,09,02,16,57,28.20
2017,09,02,16,58,28.20
2017,09,02,16,59,28.30
2017,09,02,17,00,28.20
2017,09,02,17,01,28.20
2017,09,02,17,02,28.10
2017,09,02,17,03,28.10
2017,09,02,17,04,28.10
2017,09,02,17,05,28.00
2017,09,02,17,06,28.10
2017,09,02,17,07,28.10
2017,09,02,17,08,28.10
2017,09,02,17,09,28.00
2017,09,02,17,10,27.90
2017,09,02,17,11,27.80
2017,09,02,17,12,27.50
2017,09,02,17,13,27.30
2017,09,02,17,14,27.10
2017,09,02,17,15,27.00
2017,09,02,17,16,26.80
2017,09,02,17,17,26.70
2017,09,02,17,18,26.60
2017,09,02,17,19,26.40